Location: Unspecified
(41.9031°N, 12.4386°E)
Time: 05:52:31
(UTC+02:00)

ISS - Pass Details

Date: 29 March 2020
Orbit: 417 x 423 km, 51.6° (Epoch: 29 March)

Event Time Altitude Azimuth Distance (km) Brightness Sun altitude
Rises 20:06:40 0° 298° (WNW) 2,360 1.8 -7.0°
Reaches altitude 10° 20:09:25 10° 322° (NW) 1,496 -0.1 -7.5°
Maximum altitude 20:11:30 15° 1° (N) 1,210 -1.3 -7.9°
Drops below altitude 10° 20:13:36 10° 40° (NE) 1,497 -1.2 -8.3°
Enters shadow 20:15:13 - 57° (ENE) 1,974 -0.8 -8.6°
